Time,TemperatureF,DewpointF,PressureIn,WindDirection,WindDirectionDegrees,WindSpeedMPH,WindSpeedGustMPH,Humidity,HourlyPrecipIn,Conditions,Clouds,dailyrainin,SolarRadiationWatts/m^2,SoftwareType,DateUTC
2013-01-12 00:07:00,48.6,48.0,30.14,SW,234,0.0,4.0,97,0.00,,,0.20,0,weatherlink.com 1.10,2013-01-12 05:07:00,
2013-01-12 00:22:00,48.7,48.0,30.13,SW,234,0.0,1.0,97,0.00,,,0.20,0,weatherlink.com 1.10,2013-01-12 05:22:00,
2013-01-12 00:37:00,48.8,48.0,30.13,WNW,284,0.0,2.0,97,0.00,,,0.20,0,weatherlink.com 1.10,2013-01-12 05:37:00,
2013-01-12 00:52:00,48.9,48.0,30.13,WNW,284,0.0,1.0,97,0.00,,,0.20,0,weatherlink.com 1.10,2013-01-12 05:52:00,
2013-01-12 01:22:00,49.0,48.0,30.13,WNW,284,0.0,3.0,97,0.00,,,0.20,0,weatherlink.com 1.10,2013-01-12 06:22:00,
2013-01-12 01:37:00,49.0,48.0,30.13,WNW,284,0.0,1.0,97,0.00,,,0.20,0,weatherlink.com 1.10,2013-01-12 06:37:00,
2013-01-12 01:52:00,49.0,48.0,30.12,WNW,284,0.0,0.0,97,0.00,,,0.20,0,weatherlink.com 1.10,2013-01-12 06:52:00,
2013-01-12 02:07:00,49.0,48.0,30.12,WNW,284,0.0,1.0,97,0.00,,,0.20,0,weatherlink.com 1.10,2013-01-12 07:07:00,
2013-01-12 02:22:00,49.1,48.0,30.12,WNW,284,0.0,1.0,97,0.00,,,0.20,0,weatherlink.com 1.10,2013-01-12 07:22:00,
2013-01-12 02:37:00,49.1,48.0,30.12,WNW,284,0.0,0.0,97,0.00,,,0.20,0,weatherlink.com 1.10,2013-01-12 07:37:00,
2013-01-12 02:52:00,49.2,49.0,30.12,WNW,284,0.0,2.0,98,0.00,,,0.20,0,weatherlink.com 1.10,2013-01-12 07:52:00,
2013-01-12 03:07:00,49.2,49.0,30.12,WNW,284,0.0,0.0,98,0.00,,,0.20,0,weatherlink.com 1.10,2013-01-12 08:07:00,
2013-01-12 03:22:00,49.0,48.0,30.12,WNW,284,0.0,2.0,97,0.00,,,0.20,0,weatherlink.com 1.10,2013-01-12 08:22:00,
2013-01-12 03:37:00,48.9,48.0,30.12,WNW,284,0.0,1.0,97,0.00,,,0.20,0,weatherlink.com 1.10,2013-01-12 08:37:00,
2013-01-12 03:52:00,48.9,48.0,30.12,WNW,284,0.0,2.0,97,0.00,,,0.20,0,weatherlink.com 1.10,2013-01-12 08:52:00,
2013-01-12 04:07:00,48.9,48.0,30.12,WNW,284,0.0,0.0,97,0.00,,,0.20,0,weatherlink.com 1.10,2013-01-12 09:07:00,
2013-01-12 04:22:00,49.0,48.0,30.11,WNW,284,0.0,0.0,97,0.00,,,0.20,0,weatherlink.com 1.10,2013-01-12 09:22:00,
2013-01-12 04:37:00,49.1,49.0,30.11,WNW,284,0.0,1.0,98,0.00,,,0.20,0,weatherlink.com 1.10,2013-01-12 09:37:00,
2013-01-12 04:52:00,49.2,49.0,30.10,WNW,284,0.0,0.0,98,0.00,,,0.20,0,weatherlink.com 1.10,2013-01-12 09:52:00,
2013-01-12 05:07:00,49.3,49.0,30.10,WNW,284,0.0,0.0,98,0.00,,,0.20,0,weatherlink.com 1.10,2013-01-12 10:07:00,
2013-01-12 05:22:00,49.4,49.0,30.10,WNW,284,0.0,2.0,97,0.01,,,0.21,0,weatherlink.com 1.10,2013-01-12 10:22:00,
2013-01-12 05:37:00,49.6,49.0,30.10,WNW,284,0.0,1.0,97,0.01,,,0.21,0,weatherlink.com 1.10,2013-01-12 10:37:00,
2013-01-12 05:52:00,49.6,49.0,30.10,WNW,284,0.0,0.0,97,0.01,,,0.21,0,weatherlink.com 1.10,2013-01-12 10:52:00,
2013-01-12 06:07:00,49.7,49.0,30.10,WNW,284,0.0,0.0,97,0.01,,,0.21,0,weatherlink.com 1.10,2013-01-12 11:07:00,
2013-01-12 06:22:00,49.8,49.0,30.11,WNW,284,0.0,0.0,98,0.00,,,0.00,0,weatherlink.com 1.10,2013-01-12 11:22:00,
2013-01-12 06:37:00,49.8,49.0,30.11,WNW,284,0.0,0.0,98,0.00,,,0.00,0,weatherlink.com 1.10,2013-01-12 11:37:00,
2013-01-12 06:52:00,50.1,50.0,30.11,WNW,284,0.0,0.0,98,0.00,,,0.00,0,weatherlink.com 1.10,2013-01-12 11:52:00,
2013-01-12 07:07:00,50.0,50.0,30.12,WNW,284,0.0,0.0,98,0.00,,,0.00,0,weatherlink.com 1.10,2013-01-12 12:07:00,
2013-01-12 07:22:00,50.1,50.0,30.12,WNW,284,0.0,0.0,98,0.00,,,0.00,0,weatherlink.com 1.10,2013-01-12 12:22:00,
2013-01-12 07:37:00,50.5,50.0,30.12,SSW,197,0.0,3.0,98,0.00,,,0.00,9,weatherlink.com 1.10,2013-01-12 12:37:00,
2013-01-12 07:53:00,50.6,50.0,30.12,SSW,197,0.0,2.0,98,0.00,,,0.00,12,weatherlink.com 1.10,2013-01-12 12:53:00,
2013-01-12 08:07:00,50.8,50.0,30.13,SSW,197,0.0,2.0,98,0.00,,,0.00,35,weatherlink.com 1.10,2013-01-12 13:07:00,
2013-01-12 08:22:00,51.0,51.0,30.13,SSW,197,0.0,2.0,98,0.00,,,0.00,21,weatherlink.com 1.10,2013-01-12 13:22:00,
2013-01-12 08:37:00,51.3,51.0,30.13,SSW,197,0.0,1.0,98,0.00,,,0.00,69,weatherlink.com 1.10,2013-01-12 13:37:00,
2013-01-12 08:52:00,51.8,51.0,30.13,SSW,197,2.0,4.0,98,0.00,,,0.00,107,weatherlink.com 1.10,2013-01-12 13:52:00,
2013-01-12 09:07:00,52.6,52.0,30.14,SW,217,0.0,4.0,98,0.00,,,0.00,211,weatherlink.com 1.10,2013-01-12 14:07:00,
2013-01-12 09:22:00,53.5,53.0,30.14,SW,217,2.0,3.0,98,0.00,,,0.00,134,weatherlink.com 1.10,2013-01-12 14:22:00,
2013-01-12 09:37:00,54.0,54.0,30.14,SSW,213,0.0,4.0,98,0.00,,,0.00,127,weatherlink.com 1.10,2013-01-12 14:37:00,
2013-01-12 09:53:00,54.9,54.0,30.14,WSW,238,0.0,4.0,98,0.00,,,0.00,95,weatherlink.com 1.10,2013-01-12 14:53:00,
2013-01-12 10:08:00,55.3,55.0,30.15,West,261,0.0,4.0,98,0.00,,,0.00,62,weatherlink.com 1.10,2013-01-12 15:08:00,
2013-01-12 10:23:00,55.5,55.0,30.15,SW,230,0.0,5.0,98,0.00,,,0.00,84,weatherlink.com 1.10,2013-01-12 15:23:00,
2013-01-12 10:53:00,55.6,55.0,30.14,SW,216,1.0,6.0,98,0.00,,,0.00,160,weatherlink.com 1.10,2013-01-12 15:53:00,
2013-01-12 11:08:00,56.2,56.0,30.13,SW,216,1.0,3.0,98,0.00,,,0.00,155,weatherlink.com 1.10,2013-01-12 16:08:00,
2013-01-12 11:23:00,56.8,56.0,30.12,WSW,255,0.0,4.0,98,0.00,,,0.00,234,weatherlink.com 1.10,2013-01-12 16:23:00,
2013-01-12 11:38:00,57.1,57.0,30.11,SSE,165,0.0,4.0,98,0.00,,,0.00,174,weatherlink.com 1.10,2013-01-12 16:38:00,
2013-01-12 11:53:00,58.0,58.0,30.11,SW,216,0.0,4.0,98,0.00,,,0.00,339,weatherlink.com 1.10,2013-01-12 16:53:00,
2013-01-12 12:23:00,60.4,60.0,30.10,West,267,5.0,5.0,98,0.00,,,0.00,234,weatherlink.com 1.10,2013-01-12 17:23:00,
2013-01-12 12:38:00,60.5,59.0,30.10,WSW,242,0.0,3.0,95,0.00,,,0.00,364,weatherlink.com 1.10,2013-01-12 17:38:00,
2013-01-12 12:53:00,61.6,59.0,30.09,SSE,147,1.0,5.0,92,0.00,,,0.00,561,weatherlink.com 1.10,2013-01-12 17:53:00,
2013-01-12 13:08:00,63.5,61.0,30.09,SSW,192,1.0,5.0,90,0.00,,,0.00,522,weatherlink.com 1.10,2013-01-12 18:08:00,
2013-01-12 13:23:00,64.6,60.0,30.09,SSE,167,3.0,3.0,86,0.00,,,0.00,538,weatherlink.com 1.10,2013-01-12 18:23:00,
2013-01-12 13:38:00,65.0,61.0,30.09,SW,230,0.0,3.0,88,0.00,,,0.00,517,weatherlink.com 1.10,2013-01-12 18:38:00,
2013-01-12 13:53:00,66.4,62.0,30.09,SSE,153,0.0,4.0,84,0.00,,,0.00,385,weatherlink.com 1.10,2013-01-12 18:53:00,
2013-01-12 14:08:00,68.5,63.0,30.08,SE,124,0.0,5.0,81,0.00,,,0.00,464,weatherlink.com 1.10,2013-01-12 19:08:00,
2013-01-12 14:23:00,69.5,63.0,30.08,WSW,257,1.0,3.0,80,0.00,,,0.00,457,weatherlink.com 1.10,2013-01-12 19:23:00,
2013-01-12 14:38:00,69.2,63.0,30.09,WSW,257,0.0,3.0,80,0.00,,,0.00,171,weatherlink.com 1.10,2013-01-12 19:38:00,
2013-01-12 14:53:00,68.6,63.0,30.09,WSW,257,0.0,2.0,81,0.00,,,0.00,216,weatherlink.com 1.10,2013-01-12 19:53:00,
2013-01-12 15:08:00,68.8,63.0,30.09,SSW,205,2.0,4.0,81,0.00,,,0.00,142,weatherlink.com 1.10,2013-01-12 20:08:00,
2013-01-12 15:23:00,68.9,63.0,30.09,SSW,205,0.0,2.0,81,0.00,,,0.00,132,weatherlink.com 1.10,2013-01-12 20:23:00,
2013-01-12 15:38:00,68.9,63.0,30.09,SSW,205,0.0,0.0,82,0.00,,,0.00,160,weatherlink.com 1.10,2013-01-12 20:38:00,
2013-01-12 15:53:00,68.9,64.0,30.09,SSW,205,0.0,1.0,83,0.00,,,0.00,125,weatherlink.com 1.10,2013-01-12 20:53:00,
2013-01-12 16:08:00,68.3,63.0,30.09,SSW,205,0.0,1.0,83,0.00,,,0.00,91,weatherlink.com 1.10,2013-01-12 21:08:00,
2013-01-12 16:23:00,68.0,63.0,30.09,SSW,205,0.0,0.0,84,0.00,,,0.00,49,weatherlink.com 1.10,2013-01-12 21:23:00,
2013-01-12 16:38:00,67.2,63.0,30.08,SSW,205,0.0,0.0,86,0.00,,,0.00,26,weatherlink.com 1.10,2013-01-12 21:38:00,
2013-01-12 16:53:00,66.5,63.0,30.08,SSW,205,0.0,0.0,88,0.00,,,0.00,28,weatherlink.com 1.10,2013-01-12 21:53:00,
2013-01-12 17:09:00,65.5,62.0,30.08,SSW,205,0.0,0.0,89,0.00,,,0.00,12,weatherlink.com 1.10,2013-01-12 22:09:00,
2013-01-12 17:24:00,64.9,62.0,30.08,SSW,205,0.0,0.0,91,0.00,,,0.00,0,weatherlink.com 1.10,2013-01-12 22:24:00,
2013-01-12 17:38:00,64.2,62.0,30.09,SSW,205,0.0,0.0,92,0.00,,,0.00,0,weatherlink.com 1.10,2013-01-12 22:38:00,
2013-01-12 17:55:00,63.6,62.0,30.08,SSW,205,0.0,0.0,93,0.00,,,0.00,0,weatherlink.com 1.10,2013-01-12 22:55:00,
2013-01-12 18:09:00,63.2,61.0,30.09,SSW,205,0.0,0.0,93,0.00,,,0.00,0,weatherlink.com 1.10,2013-01-12 23:09:00,
2013-01-12 18:24:00,62.9,61.0,30.08,SSW,205,0.0,0.0,93,0.00,,,0.00,0,weatherlink.com 1.10,2013-01-12 23:24:00,
2013-01-12 18:40:00,62.6,61.0,30.08,SSW,205,0.0,0.0,94,0.00,,,0.00,0,weatherlink.com 1.10,2013-01-12 23:40:00,
2013-01-12 18:55:00,62.0,60.0,30.08,SSW,205,0.0,0.0,94,0.00,,,0.00,0,weatherlink.com 1.10,2013-01-12 23:55:00,
2013-01-12 19:09:00,61.6,60.0,30.08,SSW,205,0.0,0.0,95,0.00,,,0.00,0,weatherlink.com 1.10,2013-01-13 00:09:00,
2013-01-12 19:24:00,61.3,60.0,30.07,SSW,205,0.0,0.0,95,0.00,,,0.00,0,weatherlink.com 1.10,2013-01-13 00:24:00,
2013-01-12 19:40:00,60.9,60.0,30.07,SSW,205,0.0,0.0,95,0.00,,,0.00,0,weatherlink.com 1.10,2013-01-13 00:40:00,
2013-01-12 19:55:00,60.8,60.0,30.07,SSW,205,0.0,0.0,96,0.00,,,0.00,0,weatherlink.com 1.10,2013-01-13 00:55:00,
2013-01-12 20:09:00,60.3,59.0,30.07,SSW,205,0.0,0.0,96,0.00,,,0.00,0,weatherlink.com 1.10,2013-01-13 01:09:00,
2013-01-12 20:25:00,59.7,59.0,30.08,SSW,205,0.0,0.0,96,0.00,,,0.00,0,weatherlink.com 1.10,2013-01-13 01:25:00,
2013-01-12 20:40:00,59.3,58.0,30.08,SSW,205,0.0,0.0,96,0.00,,,0.00,0,weatherlink.com 1.10,2013-01-13 01:40:00,
2013-01-12 20:55:00,59.0,58.0,30.08,SSW,205,0.0,0.0,96,0.00,,,0.00,0,weatherlink.com 1.10,2013-01-13 01:55:00,
2013-01-12 21:11:00,58.7,58.0,30.08,SSW,205,0.0,0.0,96,0.00,,,0.00,0,weatherlink.com 1.10,2013-01-13 02:11:00,
2013-01-12 21:25:00,58.1,57.0,30.08,SSW,205,0.0,0.0,96,0.00,,,0.00,0,weatherlink.com 1.10,2013-01-13 02:25:00,
2013-01-12 21:40:00,58.2,57.0,30.09,SSW,205,0.0,0.0,96,0.00,,,0.00,0,weatherlink.com 1.10,2013-01-13 02:40:00,
2013-01-12 21:55:00,57.9,57.0,30.08,SSW,205,0.0,0.0,96,0.00,,,0.00,0,weatherlink.com 1.10,2013-01-13 02:55:00,
2013-01-12 22:11:00,58.4,58.0,30.08,SSW,205,0.0,0.0,97,0.00,,,0.00,0,weatherlink.com 1.10,2013-01-13 03:11:00,
2013-01-12 22:25:00,57.2,56.0,30.08,SSW,205,0.0,0.0,96,0.00,,,0.00,0,weatherlink.com 1.10,2013-01-13 03:25:00,
2013-01-12 22:40:00,56.6,56.0,30.08,SSW,205,0.0,0.0,96,0.00,,,0.00,0,weatherlink.com 1.10,2013-01-13 03:40:00,
2013-01-12 22:55:00,56.2,55.0,30.09,SSW,205,0.0,0.0,96,0.00,,,0.00,0,weatherlink.com 1.10,2013-01-13 03:55:00,
2013-01-12 23:11:00,55.6,55.0,30.08,SSW,205,0.0,0.0,96,0.00,,,0.00,0,weatherlink.com 1.10,2013-01-13 04:11:00,
2013-01-12 23:25:00,55.6,55.0,30.09,SSW,205,0.0,0.0,97,0.00,,,0.00,0,weatherlink.com 1.10,2013-01-13 04:25:00,
2013-01-12 23:40:00,55.2,54.0,30.08,SSW,205,0.0,0.0,96,0.00,,,0.00,0,weatherlink.com 1.10,2013-01-13 04:40:00,
2013-01-12 23:56:00,54.5,53.0,30.08,SSW,205,0.0,0.0,96,0.00,,,0.00,0,weatherlink.com 1.10,2013-01-13 04:56:00,